Weather History for KGFK - November, 2013

Change the Weather History Date:

Monday, November 11, 2013

  Actual Average Record
Temperature  
Mean Temperature 12 °F 29 °F  
Max Temperature 20 °F 38 °F 64 °F (2005)
Min Temperature 4 °F 20 °F -5 °F (1986)
Degree Days  
Heating Degree Days 53 36  
Month to date heating degree days 377 365  
Since 1 July heating degree days 1280 1396  
Cooling Degree Days 0 0  
Month to date cooling degree days 0 0  
Year to date cooling degree days 487 379  
Moisture  
Dew Point 4 °F    
Average Humidity 67    
Maximum Humidity 83    
Minimum Humidity 51    
Precipitation  
Precipitation T in 0.04 in 0.73 in (1975)
Month to date precipitation 0.02 0.44  
Year to date precipitation 18.70 19.69  
Snow  
Snow T in 0.30 in 7.30 in (1975)
Month to date snowfall 0.3 2.0  
Since 1 July snowfall 0.3 3.5  
Since 1 September snowfall 0.3 3.5  
Snow Depth T in    
Sea Level Pressure  
Sea Level Pressure 30.64 in    
Wind  
Wind Speed 10 mph (NW)    
Max Wind Speed 20 mph    
Max Gust Speed 26 mph    
Visibility 10 miles    
Events Snow    
T = Trace of Precipitation, MM = Missing Value Source: NWS Daily Summary

Daily Weather History Graph

Daily Weather History Graph

Search for Another Location

Airport or City:

Trip Planner

Search our weather history database for the weather conditions in past years. The results will help you decide how hot, cold, wet, or windy it might be!

Date:

Astronomy

Nov. 11, 2013 Rise Set
Actual Time 7:29 AM CST 4:55 PM CST
Civil Twilight 6:55 AM CST 5:29 PM CST
Nautical Twilight 6:18 AM CST 6:06 PM CST
Astronomical Twilight 5:42 AM CST 6:42 PM CST
Moon 2:01 PM CST (11/11) 12:49 AM CST (11/11)
Length of Visible Light 10h 33m
Length of Day
9h 26m
Waxing Gibbous, 66% of the Moon is Illuminated
Nov 11
Waxing Gibbous
Nov 17
Full
Nov 25
Last Quarter
Dec 2
New
Dec 9
First Quarter

Hourly Weather History & Observations

Time (CST) Temp. Windchill Dew Point Humidity Pressure Visibility Wind Dir Wind Speed Gust Speed Precip Events Conditions
12:53 AM 10.0 °F -2.9 °F 3.9 °F 76% 30.44 in 10.0 mi NNW 9.2 mph - N/A   Partly Cloudy
1:07 AM 10.4 °F -4.1 °F 3.2 °F 73% 30.39 in 10.0 mi NNW 11.5 mph - N/A   Mostly Cloudy
1:53 AM 12.9 °F -0.9 °F 5.0 °F 71% 30.45 in 10.0 mi NW 11.5 mph - N/A   Overcast
2:53 AM 15.1 °F 0.5 °F 6.1 °F 68% 30.47 in 7.0 mi North 13.8 mph - 0.00 in Snow Light Snow
3:53 AM 14.0 °F -1.4 °F 5.0 °F 67% 30.49 in 9.0 mi North 15.0 mph - 0.00 in   Overcast
4:53 AM 14.0 °F -0.8 °F 5.0 °F 67% 30.52 in 10.0 mi North 13.8 mph - 0.00 in   Overcast
5:53 AM 14.0 °F -2.0 °F 3.9 °F 64% 30.54 in 10.0 mi North 16.1 mph - 0.00 in   Overcast
6:53 AM 12.9 °F -2.8 °F 5.0 °F 71% 30.58 in 10.0 mi NNW 15.0 mph - 0.00 in   Mostly Cloudy
7:53 AM 14.0 °F -2.5 °F 3.9 °F 64% 30.61 in 10.0 mi North 17.3 mph 25.3 mph N/A   Mostly Cloudy
8:53 AM 14.0 °F -2.5 °F 3.9 °F 64% 30.64 in 10.0 mi North 17.3 mph - N/A   Overcast
9:53 AM 15.1 °F 0.5 °F 5.0 °F 64% 30.66 in 10.0 mi NNW 13.8 mph 20.7 mph N/A   Mostly Cloudy
10:53 AM 17.1 °F 2.5 °F 5.0 °F 59% 30.68 in 10.0 mi North 15.0 mph - 0.00 in   Mostly Cloudy
11:53 AM 16.0 °F 1.7 °F 5.0 °F 62% 30.69 in 10.0 mi NNW 13.8 mph - N/A   Mostly Cloudy
12:53 PM 17.1 °F 4.3 °F 6.1 °F 62% 30.70 in 10.0 mi North 11.5 mph - 0.00 in   Overcast
1:53 PM 17.1 °F 6.6 °F 6.1 °F 62% 30.70 in 10.0 mi NNW 8.1 mph - 0.00 in   Overcast
2:51 PM 17.6 °F 7.3 °F 5.0 °F 58% 30.64 in 10.0 mi NNW 8.1 mph - N/A   Mostly Cloudy
2:53 PM 19.0 °F 10.0 °F 5.0 °F 54% 30.70 in 10.0 mi NNW 6.9 mph - N/A   Mostly Cloudy
3:53 PM 18.0 °F 7.7 °F 3.9 °F 54% 30.70 in 10.0 mi WNW 8.1 mph - N/A   Partly Cloudy
4:53 PM 15.1 °F 6.4 °F 3.9 °F 61% 30.72 in 10.0 mi NW 5.8 mph - N/A   Partly Cloudy
5:53 PM 10.9 °F 4.7 °F 3.0 °F 70% 30.75 in 10.0 mi West 3.5 mph - N/A   Clear
6:53 PM 7.0 °F -1.7 °F 1.0 °F 77% 30.75 in 10.0 mi WSW 4.6 mph - N/A   Clear
7:53 PM 5.0 °F -4.1 °F -0.0 °F 80% 30.75 in 10.0 mi WSW 4.6 mph - N/A   Clear
8:53 PM 6.1 °F -4.3 °F 1.0 °F 80% 30.76 in 10.0 mi SW 5.8 mph - N/A   Clear
9:53 PM 7.0 °F 0.1 °F -0.0 °F 73% 30.76 in 10.0 mi SW 3.5 mph - N/A   Clear
10:53 PM 7.0 °F -4.5 °F -0.0 °F 73% 30.76 in 10.0 mi SW 6.9 mph - N/A   Clear
11:53 PM 8.1 °F -3.2 °F 1.0 °F 73% 30.75 in 10.0 mi SW 6.9 mph - N/A   Clear